{"data":{"norad_id":68721,"epoch":"2026-09-20T03:04:07.180032Z","epoch_age_seconds":73229,"freshness":"FRESH","line1":"1 68721U 26081Y   26263.12786088  .00020625  00000+0  61978-3 0  9998","line2":"2 68721  53.1572 207.2881 0001591  97.0439 263.0744 15.34405411 24566","mean_motion":15.34405411,"eccentricity":0.0001591,"inclination_deg":53.1572,"raan_deg":207.2881,"arg_perigee_deg":97.0439,"mean_anomaly_deg":263.0744,"bstar":0.00061978,"rev_number":2456,"period_min":93.847427132151,"perigee_km":461.59878249857,"apogee_km":463.77553274553,"semimajor_km":6840.824157622,"source":"CELESTRAK","updated_at":"2026-09-20T09:00:43.986651Z"}}